Total_Precipitation_Accumulation
3.71 3.75 3.56 3.54 3.36 3.47 3.65 3.68 3.38 3.52 3.74 3.73 3.52 3.45 3.42 3.09 2.92 2.78 2.92 3.13 3.06 3.05 3.33 3.37 3.29 3.14 2.81 2.46 2.30 2.18 2.12 1.94 1.76 1.51 1.40 1.30 1.20 1.11 0.97 0.88 0.83 0.76 0.75
3.43 3.34 3.41 3.54 3.33 3.33 3.35 3.39 3.42 3.75 3.96 4.03 3.72 3.48 3.42 3.30 3.13 3.09 3.15 3.38 3.35 3.10 3.27 3.71 3.91 3.82 3.59 3.24 2.90 2.64 2.52 2.33 2.04 1.62 1.45 1.41 1.30 1.21 1.16 1.10 0.98 0.85 0.81
3.39 3.33 3.31 3.16 3.14 3.21 3.39 3.44 3.57 3.80 3.68 3.76 3.81 3.60 3.42 3.28 3.30 3.28 3.30 3.32 3.02 3.15 3.44 3.70 3.92 3.95 3.99 3.87 3.71 3.46 3.14 2.69 2.27 1.86 1.55 1.43 1.33 1.23 1.20 1.20 1.19 1.10 0.97
3.09 3.15 2.99 2.88 2.94 2.83 2.99 3.27 3.33 3.43 3.59 3.76 3.75 3.44 3.35 3.38 3.24 3.24 3.10 2.94 3.07 2.86 3.34 3.73 3.83 3.68 3.86 4.19 4.43 4.47 3.89 3.13 2.57 2.17 1.84 1.65 1.51 1.33 1.21 1.18 1.20 1.18 1.04
2.51 2.62 2.69 2.79 2.63 2.60 2.73 2.61 3.18 3.41 3.55 3.66 3.31 3.21 3.01 3.20 3.20 3.00 3.00 2.77 2.92 2.93 3.03 3.20 3.45 3.36 3.63 4.32 4.93 5.13 4.76 3.96 3.15 2.70 2.44 2.22 2.06 1.84 1.51 1.35 1.25 1.17 1.07
2.40 2.46 2.46 2.58 2.46 2.60 2.85 3.08 3.40 3.39 3.29 3.36 2.86 2.87 2.86 2.64 2.69 2.69 2.66 2.72 2.71 2.44 2.63 2.97 3.35 2.96 3.29 3.93 4.45 4.83 5.11 4.88 4.12 3.46 3.13 3.02 2.89 2.48 1.91 1.58 1.39 1.29 1.19
2.37 2.62 2.38 2.61 2.46 2.60 2.74 2.85 3.06 3.11 2.97 3.04 3.25 3.17 2.72 2.37 2.31 2.25 2.38 2.66 2.55 2.45 2.65 3.15 3.45 3.34 2.95 2.93 3.18 3.78 4.63 4.99 4.79 4.17 3.66 3.35 3.27 2.93 2.27 1.86 1.61 1.50 1.44
2.16 2.14 2.47 2.48 2.51 2.75 2.77 2.78 3.01 2.94 2.70 2.80 3.17 3.40 3.00 2.75 2.29 1.76 1.92 1.96 2.08 2.35 2.47 2.52 2.81 3.26 3.10 3.12 2.59 2.68 3.65 4.47 5.04 4.97 4.45 3.83 3.46 3.14 2.73 2.33 1.99 1.79 1.71
1.90 2.01 2.15 2.35 2.60 2.50 2.69 2.79 2.72 2.83 2.86 2.80 2.87 3.32 3.25 3.00 2.53 1.93 1.67 1.71 1.92 2.23 2.27 2.34 2.36 2.54 2.58 2.98 3.18 2.82 2.90 3.34 4.36 5.18 5.26 4.60 3.77 3.21 2.94 2.81 2.65 2.37 2.12
1.83 1.84 1.95 2.17 2.40 2.29 2.58 2.37 2.55 2.90 2.98 2.78 2.71 2.67 2.73 2.85 2.89 2.44 1.95 1.65 1.74 1.90 2.05 1.99 2.14 2.38 2.48 2.67 2.89 2.74 2.41 2.53 3.33 4.32 5.03 4.99 4.31 3.71 3.41 3.37 3.54 3.41 2.98
1.98 1.79 1.89 2.13 2.25 2.21 2.29 2.34 2.73 2.78 2.74 2.70 2.73 2.76 2.70 2.65 2.55 2.54 2.28 1.93 1.73 1.51 1.53 1.68 1.97 2.16 2.24 2.45 2.83 2.63 2.41 2.23 2.41 3.03 3.75 4.29 4.42 4.16 3.75 3.56 3.97 4.28 4.12
2.15 1.96 1.97 2.15 2.13 2.13 2.19 2.26 2.53 2.55 2.69 2.79 2.83 2.73 2.78 2.62 2.51 2.67 2.29 1.94 1.77 1.30 1.26 1.36 1.57 1.75 1.94 2.15 2.28 2.34 2.34 2.34 2.29 2.40 2.60 3.02 3.47 3.58 3.56 3.70 4.14 4.51 4.70
1.81 1.87 1.97 2.17 2.04 2.02 2.11 2.38 2.52 2.52 2.68 2.71 2.65 2.59 2.57 2.31 2.37 2.50 2.33 1.88 1.72 1.36 1.38 1.25 1.30 1.63 1.80 2.15 2.27 2.30 2.18 2.28 2.11 2.02 2.09 2.17 2.35 2.67 3.06 3.41 3.85 4.20 4.57
1.68 1.77 1.89 1.92 1.92 1.97 2.00 2.43 2.33 2.41 2.57 2.48 2.28 2.59 2.47 2.13 2.32 2.43 2.49 2.60 2.22 1.84 1.74 1.47 1.41 1.73 2.15 2.32 2.60 2.63 2.10 2.14 1.99 1.84 1.80 1.90 1.93 2.08 2.26 2.49 2.80 3.08 3.41
1.75 1.84 1.93 1.94 1.98 2.16 2.31 2.52 2.36 2.39 2.53 2.34 2.34 2.59 2.42 2.20 2.27 2.32 2.52 2.84 2.87 2.37 1.99 1.86 1.81 1.83 2.05 2.25 2.60 2.36 2.15 2.29 2.11 1.97 1.89 1.83 1.81 1.89 1.98 2.04 2.09 2.17 2.29
1.83 1.97 2.13 2.12 2.19 2.24 2.34 2.46 2.26 2.39 2.44 2.32 2.40 2.61 2.56 2.39 2.47 2.42 2.52 2.75 2.96 2.80 2.28 1.86 1.91 1.91 2.03 1.91 2.31 2.10 2.09 2.25 2.05 1.94 1.90 1.87 1.82 1.82 1.85 1.91 1.93 1.89 1.84
1.91 1.92 2.06 2.13 2.10 2.14 2.24 2.36 2.17 2.26 2.27 2.31 2.32 2.45 2.51 2.72 2.73 2.67 2.80 2.85 2.89 2.94 2.57 2.06 2.07 2.21 2.22 2.06 2.06 2.00 1.97 1.98 1.90 1.98 1.85 1.82 1.79 1.70 1.60 1.56 1.63 1.66 1.64
1.77 1.82 1.90 1.89 1.81 1.93 2.12 2.15 2.06 2.15 2.22 2.21 2.38 2.64 2.58 2.70 2.79 2.85 3.02 2.82 2.86 3.16 3.01 2.56 2.47 2.59 2.51 2.32 2.23 2.12 1.84 1.73 1.75 2.00 1.86 1.76 1.70 1.61 1.54 1.46 1.43 1.46 1.50
1.80 1.81 1.80 1.75 1.74 1.80 1.92 1.93 2.10 2.23 2.26 2.35 2.54 2.66 2.74 3.03 2.87 2.93 2.96 2.86 2.87 3.09 3.26 2.94 2.68 2.81 2.71 2.46 2.47 2.16 1.97 2.05 1.79 1.86 1.93 1.80 1.67 1.61 1.53 1.48 1.44 1.40 1.36
1.95 1.97 1.97 2.01 2.03 2.00 2.02 2.12 2.25 2.35 2.42 2.49 2.66 2.72 2.78 2.90 2.99 3.19 3.20 3.25 3.37 3.51 3.61 3.37 3.10 3.13 3.11 3.03 2.88 2.44 2.31 2.21 2.04 1.84 1.95 1.86 1.76 1.67 1.58 1.47 1.39 1.38 1.36
2.16 2.33 2.35 2.38 2.49 2.45 2.25 2.42 2.51 2.51 2.75 2.73 2.78 2.74 2.71 2.90 3.04 3.22 3.07 3.26 3.61 3.75 3.81 3.77 3.62 3.74 3.62 3.52 3.13 2.76 2.63 2.49 2.28 1.99 1.95 1.82 1.78 1.66 1.61 1.59 1.53 1.48 1.44
2.57 2.70 2.67 2.66 2.63 2.32 2.51 2.67 2.69 2.80 2.91 2.87 2.83 2.86 2.80 2.80 2.74 2.78 2.83 2.97 3.24 3.40 3.55 3.73 3.77 3.80 3.74 3.66 3.48 3.20 2.85 2.59 2.31 2.08 2.17 2.01 1.88 1.79 1.63 1.51 1.64 1.59 1.50
2.59 2.66 2.68 2.73 2.57 2.54 2.67 2.52 2.57 2.56 2.65 2.76 2.82 2.86 2.60 2.44 2.60 2.45 2.62 2.73 2.70 2.73 2.82 3.10 3.23 3.19 3.45 3.66 3.65 3.19 2.85 2.55 2.28 2.18 2.31 2.09 1.91 1.81 1.69 1.65 1.76 1.59 1.51
2.86 2.87 2.85 2.84 2.77 2.64 2.64 2.43 2.53 2.41 2.42 2.46 2.53 2.58 2.55 2.44 2.44 2.57 2.57 2.45 2.21 2.12 2.25 2.24 2.26 2.49 2.86 3.30 3.48 3.31 3.30 2.97 2.56 2.31 2.31 2.16 1.90 1.78 1.64 1.62 1.78 1.66 1.52
3.11 3.12 3.09 3.04 2.99 3.00 3.00 2.68 2.59 2.37 2.42 2.43 2.49 2.51 2.49 2.32 2.48 2.45 2.36 2.29 2.14 1.95 1.96 2.02 2.05 2.26 2.58 2.87 3.17 3.23 3.15 3.08 2.66 2.29 2.20 2.13 1.92 1.90 1.79 1.62 1.59 1.66 1.53
3.13 3.15 3.06 3.08 3.02 3.00 3.12 2.86 2.66 2.38 2.41 2.44 2.55 2.57 2.58 2.37 2.44 2.38 2.27 2.26 2.12 2.02 2.04 1.98 2.00 2.03 2.07 2.40 2.80 2.80 2.82 2.90 2.68 2.40 2.13 2.16 2.01 2.09 1.98 1.60 1.41 1.39 1.41